[[{"header":{"parameterUnit":"m.s-1","parameterCategory":1,"la1":30.2991,"la2":30.254,"lo1":-89.0895,"lo2":-89.0444,"dy":0.0017,"dx":0.0017,"nx":28,"ny":28,"refTime":"2026-01-30T09:00:00:Z","depth":0,"parameterNumber":2,"parameterNumberName":"U-component_of_WINDS"},"data":[0,0,0,0,0,0,0,0,0,0,0,0,0,0,0,0,0,0,0,0,0,0,0,0,0,0,0,0,0,0,0,0,0,0,0,0,0,0,0,0,0,0,0,0,0,0,0,0,0,0,0,0,0,0,0,0,0,0,3.8752,3.8753,0,3.8785,3.8786,3.8786,3.8729,3.8727,3.8725,3.8723,3.8755,3.8758,3.876,0,0,0,0,0,0,0,0,0,0,0,0,0,3.864,3.8642,3.8752,3.8753,3.8753,3.8785,3.8786,3.8786,3.8729,3.8727,3.8724,3.8722,3.8754,3.8757,3.8761,0,0,0,0,0,0,0,0,0,0,0,0,0,3.8682,3.8643,3.8752,3.8729,3.8727,3.8785,3.8786,3.8786,3.873,3.8727,3.8724,3.8721,3.8753,3.8757,3.8761,3.8844,0,0,3.8773,3.8775,0,0,0,0,0,0,0,0,3.868,3.8686,3.8732,3.873,3.8728,3.875,3.8758,3.8805,3.873,3.8728,3.8723,3.872,3.8756,3.8759,3.8772,3.8845,3.8846,3.8773,3.8776,3.8778,3.8779,0,0,0,0,0,0,0,3.8677,3.8685,3.8765,3.8732,3.873,3.8716,3.8719,3.8767,3.8758,3.8728,3.8724,3.8729,3.8754,3.8768,3.8772,3.8847,3.8773,3.8777,3.8779,3.8781,3.8991,3.8994,0,0,0,0,0,0,3.8677,3.8683,3.8764,3.8766,3.8697,3.8721,3.8724,3.8746,3.8757,3.8756,3.8732,3.8726,3.8763,3.8767,3.8773,3.8871,3.8778,3.8781,3.8784,3.8988,3.8992,3.8995,0,0,0,0,0,0,3.8675,3.8685,3.8763,3.8724,3.8732,3.8726,3.8751,3.8748,3.8762,3.876,3.8758,3.8747,3.8761,3.8767,3.8827,3.8871,3.8783,3.8787,3.8984,3.8989,3.8994,3.9067,0,0,0,0,0,0,3.8672,3.8685,3.8716,3.8725,3.8735,3.8817,3.8754,3.8751,3.8769,3.8763,3.8774,3.8773,3.8759,3.8821,3.8831,3.8875,3.879,3.898,3.8987,3.8992,3.9061,3.9074,3.9086,0,0,0,0,0,3.8668,3.8734,3.8718,3.8728,3.8774,3.8819,3.8825,3.8808,3.8773,3.8804,3.8803,3.8773,3.8865,3.8828,3.8838,3.8884,3.8977,3.8985,3.8992,3.9056,3.9072,3.9085,0,0,0,0,0,0,3.873,3.8735,3.8716,3.8788,3.8804,3.8809,3.8848,3.8825,3.8851,3.8843,3.8821,3.8824,3.8888,3.8892,3.8851,3.8966,3.8915,3.8925,3.896,3.8976,3.8988,3.8985,3.8793,0,0,0,0,0,3.8752,3.8789,3.8791,3.8854,3.8863,3.8855,3.8874,3.886,3.8875,3.8881,3.8884,3.89,3.8933,3.8954,3.8984,3.9062,3.9064,3.9099,3.9111,3.9121,3.9129,3.9172,3.9188,3.9019,3.9019,3.9019,0,0,3.8797,3.8805,3.8829,3.8867,3.8877,3.8916,3.8861,3.8903,3.8932,3.8887,3.8944,3.8947,3.8963,3.9033,3.9063,3.9038,3.9177,3.913,3.9139,3.9141,3.9181,3.9197,3.9211,3.9024,3.9023,3.9022,0,0,3.89,3.8909,3.8963,3.8975,3.8993,3.8987,3.9,3.9011,3.9011,3.9068,3.9036,3.907,3.9126,3.9139,3.9154,3.9265,3.9237,3.9275,3.9338,3.938,3.9393,3.9405,3.9444,3.9459,3.9283,3.9284,3.9284,0,3.8954,3.9011,3.8993,3.9039,3.9057,3.902,3.9074,3.9087,3.9113,3.9126,3.9098,3.917,3.9178,3.925,3.9278,3.929,3.9305,3.9273,3.9393,3.9404,3.9415,3.9452,3.9467,3.9288,3.9288,3.9287,3.9287,0,3.9077,3.9117,3.9159,3.9186,3.9209,3.9259,3.9249,3.9274,3.9259,3.9256,3.9315,3.9324,3.9356,3.9372,3.9357,3.9443,3.9427,3.9397,3.9345,3.9436,3.9471,3.9485,3.9294,3.9293,3.9291,3.929,0,0,3.9217,3.9236,3.9251,3.9264,3.9282,3.9312,3.9362,3.9394,3.9416,3.9436,3.9476,3.9527,3.9499,3.9515,3.9501,3.9538,3.9626,3.9503,3.9503,3.9525,3.9722,3.9745,3.9762,3.9609,3.9612,3.9614,3.9721,0,3.9319,3.9403,3.939,3.9472,3.951,3.9476,3.9519,3.9535,3.9535,3.9567,3.9566,3.9602,3.9563,3.9573,3.9608,3.9608,3.9665,3.96,3.9646,3.9648,3.9642,3.978,3.9803,3.9904,3.9734,3.9737,3.9738,0,3.9448,3.9475,3.9561,3.9574,3.959,3.9628,3.9657,3.9689,3.9706,3.9704,3.9723,3.9704,3.9753,3.9703,3.977,3.9727,3.9745,3.9748,3.9752,3.9755,3.9698,3.9786,3.9935,3.995,3.9759,3.9758,3.9756,0,3.9542,3.9599,3.9658,3.967,3.9687,3.9715,3.9724,3.9739,3.9759,3.9785,3.9798,3.983,3.9846,3.9871,3.986,3.9825,3.9931,3.9879,3.993,3.993,3.9952,3.9951,4.0106,3.9966,3.9965,3.9965,3.9965,0,3.9656,3.971,3.97,3.9736,3.9796,3.9781,3.9841,3.9845,3.9859,3.9896,3.987,3.9905,3.9889,3.9923,3.9915,3.9973,3.9981,3.998,3.9977,3.9982,3.9982,3.9993,3.9985,3.9969,3.9968,3.9967,3.9967,0,3.977,3.9765,3.9828,3.984,3.9844,3.9888,3.9898,3.9933,3.9931,3.9979,3.9989,3.9987,4.0026,4.0018,4.0061,4.0056,4.0128,4.0117,4.0122,4.0119,4.0171,4.0166,4.0337,4.0359,4.0205,4.0207,4.0208,0,3.9843,3.9884,3.9901,3.9925,3.9936,3.9973,3.9995,3.9982,4.0006,4.003,4.0062,4.0099,4.0128,4.0192,4.0194,4.0227,4.0216,4.0274,4.0221,4.0225,4.0217,4.0214,4.0218,4.0284,4.0286,4.0287,4.0289,0,3.9973,3.997,4.0002,4.0035,4.0061,4.0086,4.0108,4.0129,4.0118,4.0146,4.0186,4.0209,4.0254,4.0291,4.0322,4.0331,4.0308,4.0306,4.0319,4.0324,4.0325,4.0325,4.0151,4.0301,4.03,4.0299,4.0298,4.0298,4.0068,4.0104,4.0122,4.016,4.0175,4.0197,4.0231,4.0234,4.0268,4.0304,4.0295,4.0341,4.0359,4.0399,4.0411,4.0447,4.0425,4.0445,4.045,4.0454,4.0461,4.0321,4.0453,4.0452,4.0452,4.0452,4.0451,0,4.0197,4.0208,4.0243,4.0275,4.0305,4.0283,4.0307,4.0333,4.0374,4.0394,4.0423,4.047,4.0507,4.0513,4.0548,4.0576,4.0566,4.0585,4.0582,4.0585,4.0478,4.0463,4.0592,4.0592,4.0592,4.0592,4.0592,4.0592,4.0267,4.0326,4.0325,4.0392,4.0403,4.0448,4.0464,4.0484,4.05,4.0554,4.0584,4.0589,4.0603,4.0639,4.0672,4.0673,4.0687,4.071,4.0707,4.0607,4.0592,4.0579,4.0564,4.0713,4.0714,4.0811,4.0812,4.0813]},{"header":{"parameterUnit":"m.s-1","parameterCategory":1,"la1":30.2991,"la2":30.254,"lo1":-89.0895,"lo2":-89.0444,"dy":0.0017,"dx":0.0017,"nx":28,"ny":28,"refTime":"2026-01-30T09:00:00:Z","depth":0,"parameterNumber":3,"parameterNumberName":"V-component_of_WINDS"},"data":[0,0,0,0,0,0,0,0,0,0,0,0,0,0,0,0,0,0,0,0,0,0,0,0,0,0,0,0,0,0,0,0,0,0,0,0,0,0,0,0,0,0,0,0,0,0,0,0,0,0,0,0,0,0,0,0,0,0,-8.8378,-8.838,0,-8.8631,-8.8634,-8.8637,-8.8585,-8.858,-8.8576,-8.8571,-8.8826,-8.8837,-8.8848,0,0,0,0,0,0,0,0,0,0,0,0,0,-8.7845,-8.7855,-8.8377,-8.8381,-8.8384,-8.8631,-8.8634,-8.8638,-8.8586,-8.858,-8.8575,-8.8569,-8.8823,-8.8836,-8.8849,0,0,0,0,0,0,0,0,0,0,0,0,0,-8.8085,-8.7859,-8.8377,-8.8388,-8.8391,-8.863,-8.8634,-8.8638,-8.8587,-8.858,-8.8573,-8.8567,-8.8818,-8.8835,-8.8851,-8.9093,0,0,-8.8902,-8.8909,0,0,0,0,0,0,0,0,-8.8072,-8.8105,-8.8383,-8.8388,-8.8392,-8.8569,-8.854,-8.8791,-8.8589,-8.8513,-8.8571,-8.8563,-8.8746,-8.8768,-8.8831,-8.9105,-8.9116,-8.8904,-8.8914,-8.8921,-8.8926,0,0,0,0,0,0,0,-8.8055,-8.8094,-8.8478,-8.8387,-8.8393,-8.8379,-8.8405,-8.8587,-8.8665,-8.8519,-8.8516,-8.8547,-8.8747,-8.8815,-8.8837,-8.912,-8.8903,-8.8918,-8.8928,-8.8935,-8.9606,-8.9613,0,0,0,0,0,0,-8.8035,-8.808,-8.847,-8.8485,-8.8212,-8.8394,-8.8424,-8.8519,-8.8663,-8.8678,-8.8552,-8.8543,-8.879,-8.8817,-8.8845,-8.9139,-8.8921,-8.8936,-8.8946,-8.9598,-8.9607,-8.9616,0,0,0,0,0,0,-8.8024,-8.807,-8.8459,-8.8282,-8.8331,-8.8411,-8.8519,-8.8528,-8.8596,-8.8689,-8.8702,-8.8608,-8.8786,-8.8822,-8.9032,-8.9147,-8.8944,-8.8959,-8.9589,-8.9601,-8.9612,-8.9727,0,0,0,0,0,0,-8.8009,-8.8067,-8.816,-8.8285,-8.834,-8.8644,-8.8526,-8.8538,-8.8625,-8.8616,-8.8744,-8.8758,-8.8783,-8.9008,-8.9049,-8.9166,-8.8972,-8.9579,-8.9594,-8.9608,-8.9714,-8.9742,-8.9765,0,0,0,0,0,-8.799,-8.8182,-8.8165,-8.8213,-8.8459,-8.865,-8.8682,-8.8708,-8.8635,-8.8729,-8.8789,-8.8754,-8.9128,-8.903,-8.9076,-8.92,-8.9572,-8.959,-8.9607,-8.9702,-8.9736,-8.9765,0,0,0,0,0,0,-8.8067,-8.8198,-8.8181,-8.8419,-8.8525,-8.8641,-8.8761,-8.8743,-8.887,-8.8855,-8.8881,-8.891,-8.9124,-8.9183,-8.9071,-8.9442,-8.9339,-8.9367,-8.9396,-8.9429,-8.9454,-8.9436,-8.8986,0,0,0,0,0,-8.8112,-8.8258,-8.8364,-8.8563,-8.8617,-8.868,-8.8764,-8.8776,-8.8885,-8.8928,-8.9003,-8.9109,-8.925,-8.9343,-8.9478,-8.9722,-8.9749,-8.983,-8.9855,-8.9876,-8.99,-9.0033,-9.0071,-8.9674,-8.9673,-8.9673,0,0,-8.8206,-8.8296,-8.8386,-8.8581,-8.8664,-8.8813,-8.8718,-8.8879,-8.899,-8.8952,-8.9156,-8.9215,-8.9335,-8.9563,-8.9668,-8.9619,-9.0016,-8.9899,-8.9915,-8.9927,-9.0055,-9.0093,-9.0126,-8.9686,-8.9683,-8.9681,0,0,-8.8453,-8.8536,-8.8712,-8.8797,-8.8924,-8.8965,-8.9007,-8.9128,-8.9166,-8.9371,-8.9346,-8.9477,-8.972,-8.9807,-8.9882,-9.0164,-9.0137,-9.0207,-9.0342,-9.0472,-9.0503,-9.0531,-9.0632,-9.0668,-9.023,-9.023,-9.0231,0,-8.8554,-8.8779,-8.8804,-8.8969,-8.9056,-8.903,-8.9207,-8.9288,-8.9452,-8.9512,-8.9455,-8.9761,-8.9839,-9.0088,-9.0157,-9.0219,-9.0267,-9.0192,-9.0497,-9.0525,-9.0552,-9.0648,-9.0685,-9.0238,-9.0237,-9.0236,-9.0236,0,-8.8896,-8.9052,-8.9179,-8.934,-8.944,-8.9611,-8.9661,-8.976,-8.9762,-8.9809,-9.0018,-9.0112,-9.0266,-9.0326,-9.0329,-9.0575,-9.0541,-9.0491,-9.0388,-9.0597,-9.0687,-9.0724,-9.0249,-9.0246,-9.0244,-9.0242,0,0,-8.9198,-8.9372,-8.9418,-8.9491,-8.963,-8.975,-8.9919,-9.0072,-9.0156,-9.027,-9.0412,-9.0618,-9.0573,-9.0659,-9.0672,-9.0786,-9.1003,-9.0722,-9.0725,-9.0771,-9.1281,-9.1318,-9.136,-9.0986,-9.0994,-9.0999,-9.1271,0,-8.9459,-8.9758,-8.9786,-9.0055,-9.0199,-9.0177,-9.0324,-9.0425,-9.0473,-9.0602,-9.0654,-9.0801,-9.073,-9.0782,-9.0894,-9.0953,-9.1106,-9.0934,-9.1118,-9.1124,-9.1089,-9.1408,-9.1447,-9.1699,-9.1306,-9.1312,-9.1317,0,-8.9802,-8.9928,-9.0212,-9.0331,-9.0392,-9.0524,-9.0666,-9.079,-9.0903,-9.093,-9.1028,-9.1025,-9.1198,-9.1089,-9.1328,-9.121,-9.1287,-9.1328,-9.1338,-9.1356,-9.1233,-9.1434,-9.178,-9.1817,-9.1373,-9.1368,-9.1364,0,-8.9995,-9.0235,-9.0436,-9.0499,-9.0643,-9.0736,-9.08,-9.0907,-9.0997,-9.112,-9.1179,-9.132,-9.1398,-9.1507,-9.1542,-9.146,-9.178,-9.1674,-9.1806,-9.1806,-9.1874,-9.187,-9.2237,-9.1924,-9.1924,-9.1923,-9.1922,0,-9.0283,-9.0457,-9.0525,-9.0648,-9.0842,-9.0872,-9.1064,-9.1122,-9.1218,-9.1351,-9.134,-9.1466,-9.1505,-9.1637,-9.1666,-9.1859,-9.1894,-9.192,-9.1926,-9.1922,-9.1918,-9.1972,-9.1955,-9.1933,-9.1931,-9.1929,-9.1927,0,-9.053,-9.0583,-9.08,-9.0919,-9.0953,-9.1091,-9.1192,-9.1311,-9.1357,-9.1527,-9.1568,-9.1641,-9.1796,-9.1843,-9.2028,-9.2048,-9.2274,-9.2264,-9.2237,-9.2237,-9.2367,-9.2354,-9.2782,-9.284,-9.2489,-9.2492,-9.2495,0,-9.0711,-9.0844,-9.0978,-9.1068,-9.1136,-9.128,-9.1372,-9.1407,-9.1503,-9.1643,-9.1745,-9.1898,-9.2023,-9.2272,-9.234,-9.2483,-9.2476,-9.2616,-9.2497,-9.2488,-9.2478,-9.247,-9.2483,-9.2638,-9.2642,-9.2645,-9.2647,0,-9.1025,-9.1045,-9.1178,-9.1323,-9.1433,-9.1548,-9.1658,-9.1731,-9.1782,-9.189,-9.205,-9.2147,-9.2338,-9.249,-9.2635,-9.2699,-9.2682,-9.2684,-9.2722,-9.2719,-9.2698,-9.2712,-9.2298,-9.2674,-9.2671,-9.2669,-9.2668,-9.2667,-9.1245,-9.1363,-9.1476,-9.1626,-9.1712,-9.1816,-9.1933,-9.1995,-9.2129,-9.2289,-9.23,-9.2473,-9.2582,-9.2775,-9.2848,-9.2982,-9.2941,-9.2996,-9.301,-9.3024,-9.3034,-9.2677,-9.3008,-9.3008,-9.3007,-9.3006,-9.3006,0,-9.1559,-9.163,-9.1768,-9.1923,-9.2041,-9.2016,-9.2137,-9.2237,-9.2389,-9.2494,-9.2617,-9.28,-9.2949,-9.3029,-9.3177,-9.3269,-9.3265,-9.3307,-9.33,-9.3315,-9.3063,-9.3015,-9.3308,-9.3308,-9.3308,-9.3307,-9.3307,-9.3307,-9.1736,-9.1935,-9.1968,-9.2209,-9.2279,-9.2449,-9.2521,-9.2616,-9.2699,-9.2905,-9.3029,-9.3081,-9.3176,-9.3331,-9.3465,-9.3485,-9.3539,-9.3586,-9.3601,-9.3364,-9.3333,-9.3303,-9.3259,-9.3598,-9.3598,-9.3843,-9.3845,-9.3847]}]]